DW7857 Weather Reports


time (UTC)temp
F
wind
direction
speed
knots
gust
knots
rain 1hr
in
rain 24hr
in
rain mn
in
humidity
%
barometer
mb
20190321014011 49 273 0.9 2.6 0.00 0.00 0.00 84 1024.2
20190321013017 49 229 1.7 2.6 0.00 0.00 0.00 85 1024.2
20190321012017 49 302 2.6 4.3 0.00 0.00 0.00 85 1024.2
20190321011017 49 271 3.5 5.2 0.00 0.00 0.00 85 1024.3
20190321010017 49 287 2.6 5.2 0.00 0.00 0.00 85 1024.3
20190321005017 49 266 1.7 3.5 0.00 0.00 0.00 85 1024.2
20190321004017 49 308 1.7 3.5 0.00 0.00 0.00 85 1024.3
20190321003017 49 297 0.9 1.7 0.00 0.00 0.00 85 1024.3
20190321002017 49 338 0.9 1.7 0.00 0.00 0.00 85 1024.3
20190321001018 49 51 0.9 1.7 0.00 0.00 0.00 85 1024.4
20190321000021 49 1 0.0 0.9 0.00 0.00 0.00 85 1024.3
20190320235018 49 46 0.9 1.7 0.00 0.00 0.00 84 1024.4
20190320234017 49 49 0.0 1.7 0.00 0.00 0.00 84 1024.3
20190320233018 49 43 0.9 1.7 0.00 0.00 0.00 84 1024.4
20190320232017 49 1 0.0 0.9 0.00 0.00 0.00 84 1024.5
20190320231017 49 343 0.9 1.7 0.00 0.00 0.00 84 1024.4
20190320230017 49 314 0.0 0.9 0.00 0.00 0.00 84 1024.4
20190320225017 49 338 0.9 1.7 0.00 0.00 0.00 84 1024.4
20190320224017 49 1 0.0 1.7 0.00 0.00 0.00 84 1024.3
20190320223017 49 26 0.9 1.7 0.00 0.00 0.00 83 1024.1
20190320222017 49 18 1.7 1.7 0.00 0.00 0.00 83 1024.3
20190320221018 49 346 1.7 2.6 0.00 0.00 0.00 83 1024.2
20190320220018 49 335 2.6 3.5 0.00 0.00 0.00 83 1024.2
20190320215017 49 21 2.6 3.5 0.00 0.00 0.00 83 1024.3
20190320214017 50 23 1.7 3.5 0.00 0.00 0.00 83 1024.3
20190320213017 50 317 0.9 1.7 0.00 0.00 0.00 84 1024.2
20190320212017 50 302 0.0 1.7 0.00 0.00 0.00 84 1024.4
20190320211017 50 314 0.0 1.7 0.00 0.00 0.00 84 1024.2
20190320210017 50 314 0.0 1.7 0.00 0.00 0.00 84 1024.2
20190320205017 50 0 0.0 0.0 0.00 0.00 0.00 84 1024.3
20190320204017 50 181 1.7 1.7 0.00 0.00 0.00 84 1024.2
20190320203017 50 178 1.7 1.7 0.00 0.00 0.00 84 1024.2
20190320202017 50 197 0.9 2.6 0.00 0.00 0.00 84 1024.2
20190320201018 50 194 1.7 2.6 0.00 0.00 0.00 84 1024.2
20190320200017 50 197 2.6 4.3 0.00 0.00 0.00 83 1023.9
20190320195017 50 202 3.5 4.3 0.00 0.00 0.00 83 1023.8
20190320194017 50 260 2.6 4.3 0.00 0.00 0.00 83 1024.0
20190320193017 50 209 2.6 3.5 0.00 0.00 0.00 83 1023.8
20190320192017 50 201 2.6 3.5 0.00 0.00 0.00 82 1023.6
20190320191017 50 193 1.7 2.6 0.00 0.00 0.00 82 1023.7
20190320190017 50 137 1.7 2.6 0.00 0.00 0.00 82 1023.8
20190320185017 50 188 1.7 3.5 0.00 0.00 0.00 82 1023.7
20190320184018 50 214 1.7 2.6 0.00 0.00 0.00 81 1023.8
20190320183017 51 210 2.6 3.5 0.00 0.00 0.00 81 1023.6
20190320182018 51 178 1.7 3.5 0.00 0.00 0.00 81 1023.6
20190320181018 51 201 2.6 5.2 0.00 0.00 0.00 80 1023.6
20190320180017 51 209 3.5 4.3 0.00 0.00 0.00 80 1023.3
20190320175017 51 220 3.5 4.3 0.00 0.00 0.00 79 1023.3
20190320174018 51 207 2.6 3.5 0.00 0.00 0.00 78 1023.1
20190320173018 51 245 2.6 5.2 0.00 0.00 0.00 77 1023.0
20190320172017 52 190 2.6 4.3 0.00 0.00 0.00 77 1022.9
20190320171018 52 214 3.5 5.2 0.00 0.00 0.00 76 1022.9
20190320170017 52 227 4.3 5.2 0.00 0.00 0.00 75 1022.8
20190320165017 53 209 4.3 7.0 0.00 0.00 0.00 74 1022.9
20190320164017 53 195 4.3 7.0 0.00 0.00 0.00 74 1022.6
20190320163018 53 215 3.5 4.3 0.00 0.00 0.00 74 1022.4
20190320162017 53 220 4.3 5.2 0.00 0.00 0.00 73 1022.6
20190320161017 53 205 4.3 7.0 0.00 0.00 0.00 73 1022.7
20190320160017 54 209 5.2 7.0 0.00 0.00 0.00 72 1022.8
20190320155017 54 192 4.3 7.0 0.00 0.00 0.00 72 1022.9
20190320154017 54 190 4.3 6.1 0.00 0.00 0.00 71 1022.8
20190320153017 54 213 5.2 7.0 0.00 0.00 0.00 65 1022.7
20190320152017 56 207 3.5 4.3 0.00 0.00 0.00 64 1022.7
20190320151017 56 206 3.5 5.2 0.00 0.00 0.00 63 1022.7
20190320150017 57 202 3.5 5.2 0.00 0.00 0.00 63 1022.8
20190320145017 56 242 3.5 7.0 0.00 0.00 0.00 64 1023.0
20190320144017 55 219 3.5 7.0 0.00 0.00 0.00 65 1022.9
20190320143017 55 199 3.5 5.2 0.00 0.00 0.00 64 1023.0
20190320142017 55 200 2.6 3.5 0.00 0.00 0.00 65 1022.8
20190320141017 55 200 4.3 7.0 0.00 0.00 0.00 65 1023.2
20190320140017 55 208 4.3 6.1 0.00 0.00 0.00 65 1023.0
20190320135017 55 215 4.3 9.6 0.00 0.00 0.00 66 1023.0
20190320134017 54 196 5.2 7.8 0.00 0.00 0.00 65 1023.0
20190320133017 55 176 5.2 8.7 0.00 0.00 0.00 64 1023.1
20190320132017 55 179 3.5 6.1 0.00 0.00 0.00 66 1023.3
20190320131016 55 215 4.3 7.8 0.00 0.00 0.00 65 1023.3
20190320130017 55 243 2.6 5.2 0.00 0.00 0.00 66 1023.4
20190320125016 55 192 4.3 6.1 0.00 0.00 0.00 66 1023.5
20190320124016 55 196 3.5 6.1 0.00 0.00 0.00 65 1023.4
20190320123016 55 240 2.6 3.5 0.00 0.00 0.00 67 1023.5
20190320122016 54 224 4.3 7.0 0.00 0.00 0.00 66 1023.6
20190320121016 54 196 3.5 6.1 0.00 0.00 0.00 67 1023.7
20190320120017 54 200 4.3 6.1 0.00 0.00 0.00 70 1023.6
20190320115016 54 246 3.5 5.2 0.00 0.00 0.00 72 1023.7
20190320114016 54 262 2.6 4.3 0.00 0.00 0.00 70 1023.6
20190320113017 54 209 3.5 4.3 0.00 0.00 0.00 73 1023.5
20190320112016 54 265 4.3 7.0 0.00 0.00 0.00 74 1023.7
20190320111016 54 201 3.5 6.1 0.00 0.00 0.00 75 1023.6
20190320110017 53 202 2.6 3.5 0.00 0.00 0.00 75 1023.6
20190320105016 53 226 3.5 4.3 0.00 0.00 0.00 74 1023.3
20190320104016 54 235 3.5 5.2 0.00 0.00 0.00 73 1023.4
20190320103016 54 189 2.6 3.5 0.00 0.00 0.00 73 1023.6
20190320102016 54 227 1.7 3.5 0.00 0.00 0.00 73 1023.8
20190320101017 54 214 1.7 3.5 0.00 0.00 0.00 73 1023.8
20190320100017 54 198 2.6 3.5 0.00 0.00 0.00 73 1023.6
20190320095016 53 184 2.6 2.6 0.00 0.00 0.00 74 1023.6
20190320094018 53 215 1.7 2.6 0.00 0.00 0.00 76 1023.8
20190320093016 52 207 1.7 3.5 0.00 0.00 0.00 76 1023.7
20190320092017 52 236 2.6 3.5 0.00 0.00 0.00 76 1023.7
20190320091016 51 202 2.6 3.5 0.00 0.00 0.00 75 1023.7
20190320090017 52 186 1.7 2.6 0.00 0.00 0.00 77 1023.5
20190320085016 52 236 0.9 1.7 0.00 0.00 0.00 79 1023.2
20190320084016 51 292 0.9 1.7 0.00 0.00 0.00 80 1023.3
20190320083016 51 276 0.9 1.7 0.00 0.00 0.00 81 1023.2
20190320082016 50 270 0.0 1.7 0.00 0.00 0.00 81 1023.2
20190320081016 50 173 0.9 1.7 0.00 0.00 0.00 82 1023.3
20190320080017 50 193 0.9 1.7 0.00 0.00 0.00 82 1023.1
20190320075016 49 204 0.9 1.7 0.00 0.00 0.00 82 1022.9
20190320074016 49 181 0.0 0.9 0.00 0.00 0.00 82 1022.7
20190320073017 49 169 0.0 0.9 0.00 0.00 0.00 82 1022.4
20190320072016 49 95 0.9 1.7 0.00 0.00 0.00 82 1022.3
20190320071016 48 130 0.0 0.9 0.00 0.00 0.00 82 1022.4
20190320070016 48 226 0.9 1.7 0.00 0.00 0.00 82 1022.4
20190320065016 48 191 1.7 3.5 0.00 0.00 0.00 82 1022.1
20190320064016 48 185 1.7 2.6 0.00 0.00 0.00 82 1022.3
20190320063016 48 186 1.7 3.5 0.00 0.00 0.00 82 1022.0
20190320062017 48 185 1.7 1.7 0.00 0.00 0.00 82 1021.7
20190320061016 48 186 2.6 3.5 0.00 0.00 0.00 82 1021.8
20190320060016 48 193 0.9 1.7 0.00 0.00 0.00 82 1021.7
20190320055016 48 187 0.9 1.7 0.00 0.00 0.00 82 1021.7
20190320054016 48 204 0.9 1.7 0.00 0.00 0.00 82 1021.5
20190320053016 48 184 0.9 1.7 0.00 0.00 0.00 82 1021.6
20190320052016 48 181 1.7 1.7 0.00 0.00 0.00 82 1021.4
20190320051016 48 203 1.7 2.6 0.00 0.00 0.00 82 1021.3
20190320050016 48 177 0.9 1.7 0.00 0.00 0.00 82 1021.4
20190320045016 48 181 0.9 1.7 0.00 0.00 0.00 82 1021.4
20190320044016 48 0 0.0 0.0 0.00 0.00 0.00 82 1021.4
20190320043016 48 181 0.9 1.7 0.00 0.00 0.00 82 1021.3
20190320042016 48 181 0.9 1.7 0.00 0.00 0.00 82 1021.1
20190320041016 48 205 0.9 1.7 0.00 0.00 0.00 82 1021.2
20190320040016 48 211 0.9 1.7 0.00 0.00 0.00 82 1021.1
20190320035016 48 196 1.7 1.7 0.00 0.00 0.00 82 1021.2
20190320034016 48 202 1.7 1.7 0.00 0.00 0.00 82 1021.1
20190320033016 48 215 0.9 1.7 0.00 0.00 0.00 82 1021.1
20190320032016 48 0 0.0 0.0 0.00 0.00 0.00 82 1021.3
20190320031016 48 176 0.0 0.9 0.00 0.00 0.00 82 1021.2
20190320030016 48 225 0.9 1.7 0.00 0.00 0.00 82 1021.2
20190320025016 48 225 0.9 1.7 0.00 0.00 0.00 82 1021.2
20190320024016 47 194 1.7 1.7 0.00 0.00 0.00 82 1021.1
20190320023016 47 201 0.9 1.7 0.00 0.00 0.00 82 1021.3
20190320022016 47 170 0.9 1.7 0.00 0.00 0.00 82 1021.3
20190320021016 47 212 1.7 2.6 0.00 0.00 0.00 82 1021.1
20190320020016 47 123 0.9 1.7 0.00 0.00 0.00 82 1020.9
20190320015016 47 195 2.6 3.5 0.00 0.00 0.00 82 1020.9